Oconto, WI

12:26 PM CST on December 08, 2019 (GMT -0600)
Oconto Municipal

Weather History for KOCQ - October, 2019

Change the Weather History Date:

Wednesday, October 2, 2019

  Actual Average Record
Temperature  
Mean Temperature 50 °F -  
Max Temperature 52 °F 65 °F 73 °F (2017)
Min Temperature 48 °F 40 °F 38 °F (2013)
Degree Days  
Heating Degree Days 15    
Moisture  
Dew Point 46 °F    
Average Humidity 83    
Maximum Humidity 95    
Minimum Humidity 70    
Precipitation  
Precipitation 0.26 in - - ()
Sea Level Pressure  
Sea Level Pressure 30.06 in    
Wind  
Wind Speed 10 mph (NE)    
Max Wind Speed 15 mph    
Max Gust Speed 24 mph    
Visibility 10 miles    
Events      
Averages and records for this station are not official NWS values.
T = Trace of Precipitation, MM = Missing Value Source: NWS Daily Summary

Daily Weather History Graph

Daily Weather History Graph

Search for Another Location

Airport or City:

Astronomy

Oct. 02, 2019 Rise Set
Actual Time 6:50 AM CDT 6:30 PM CDT
Civil Twilight 6:21 AM CDT 6:59 PM CDT
Nautical Twilight 5:47 AM CDT 7:33 PM CDT
Astronomical Twilight 5:12 AM CDT 8:08 PM CDT
Moon 11:26 AM CDT (10/2) 9:13 PM CDT (10/2)
Length of Visible Light 12h 38m
Length of Day
11h 40m
Waxing Crescent, 20% of the Moon is Illuminated
Oct 2
Waxing Crescent
Oct 5
First Quarter
Oct 13
Full
Oct 21
Last Quarter
Oct 27
New

Hourly Weather History & Observations

Time (CDT) Temp. Dew Point Humidity Pressure Visibility Wind Dir Wind Speed Gust Speed Precip Events Conditions
12:15 AM 51.4 °F 49.8 °F 94% 30.00 in 7.0 mi NE 11.5 mph 18.4 mph 0.05 in   Overcast
12:35 AM 50.9 °F 49.5 °F 95% 30.01 in 10.0 mi NNE 5.8 mph - 0.09 in   Overcast
12:55 AM 50.9 °F 49.1 °F 94% 30.00 in 10.0 mi NNE 5.8 mph - 0.12 in   Overcast
1:15 AM 50.5 °F 49.3 °F 95% 29.99 in 10.0 mi NNE 6.9 mph - 0.01 in   Overcast
1:35 AM 50.5 °F 48.7 °F 94% 30.01 in 10.0 mi NNE 10.4 mph 17.3 mph 0.02 in   Overcast
1:55 AM 50.0 °F 48.0 °F 93% 30.01 in 10.0 mi NNE 12.7 mph 18.4 mph 0.02 in   Overcast
2:15 AM 49.6 °F 47.3 °F 92% 30.00 in 10.0 mi NE 8.1 mph - 0.01 in   Overcast
2:35 AM 49.5 °F 47.7 °F 94% 30.00 in 10.0 mi NNE 8.1 mph - 0.02 in   Overcast
2:55 AM 49.5 °F 47.5 °F 93% 30.00 in 10.0 mi NNE 8.1 mph - 0.02 in   Overcast
3:15 AM 49.5 °F 47.5 °F 93% 30.01 in 10.0 mi North 6.9 mph - N/A   Overcast
3:35 AM 49.6 °F 47.3 °F 92% 30.01 in 10.0 mi North 9.2 mph - N/A   Overcast
3:55 AM 49.8 °F 47.3 °F 91% 30.01 in 10.0 mi NNE 8.1 mph - N/A   Overcast
4:15 AM 50.0 °F 47.3 °F 90% 30.02 in 10.0 mi North 8.1 mph - N/A   Overcast
4:35 AM 50.0 °F 47.3 °F 90% 30.01 in 10.0 mi NNE 8.1 mph - N/A   Overcast
4:55 AM 50.0 °F 47.3 °F 90% 30.01 in 10.0 mi NNE 9.2 mph - N/A   Overcast
5:15 AM 50.0 °F 46.9 °F 89% 30.02 in 10.0 mi North 10.4 mph 16.1 mph N/A   Overcast
5:35 AM 50.0 °F 46.9 °F 89% 30.03 in 10.0 mi NNE 9.2 mph - N/A   Overcast
5:55 AM 50.0 °F 47.3 °F 90% 30.03 in 10.0 mi NNE 10.4 mph - N/A   Overcast
6:15 AM 50.0 °F 47.3 °F 90% 30.04 in 10.0 mi NNE 11.5 mph 18.4 mph N/A   Overcast
6:35 AM 50.0 °F 47.3 °F 90% 30.05 in 10.0 mi NNE 10.4 mph - N/A   Overcast
6:55 AM 50.2 °F 47.1 °F 89% 30.06 in 10.0 mi NNE 10.4 mph - N/A   Overcast
7:15 AM 50.2 °F 46.4 °F 87% 30.06 in 10.0 mi NNE 12.7 mph 18.4 mph N/A   Overcast
7:35 AM 50.2 °F 46.4 °F 87% 30.06 in 10.0 mi NNE 10.4 mph 16.1 mph N/A   Overcast
7:55 AM 50.0 °F 46.4 °F 87% 30.06 in 10.0 mi NE 10.4 mph 17.3 mph N/A   Overcast
8:15 AM 50.2 °F 45.9 °F 85% 30.06 in 10.0 mi NE 11.5 mph 17.3 mph N/A   Overcast
8:35 AM 50.4 °F 45.9 °F 85% 30.07 in 10.0 mi NNE 9.2 mph 20.7 mph N/A   Overcast
8:55 AM 50.9 °F 46.0 °F 83% 30.07 in 10.0 mi NNE 10.4 mph 17.3 mph N/A   Overcast
9:15 AM 50.9 °F 45.7 °F 82% 30.09 in 10.0 mi NNE 11.5 mph 17.3 mph N/A   Overcast
9:35 AM 51.8 °F 46.0 °F 81% 30.08 in 10.0 mi NE 12.7 mph 19.6 mph N/A   Overcast
9:55 AM 52.0 °F 45.7 °F 79% 30.09 in 10.0 mi NNE 11.5 mph 20.7 mph N/A   Overcast
10:15 AM 52.0 °F 45.3 °F 78% 30.09 in 10.0 mi NE 11.5 mph 20.7 mph N/A   Overcast
10:35 AM 51.8 °F 44.6 °F 76% 30.09 in 10.0 mi NNE 13.8 mph 24.2 mph N/A   Overcast
10:55 AM 52.0 °F 45.1 °F 77% 30.09 in 10.0 mi NNE 9.2 mph 19.6 mph N/A   Overcast
11:15 AM 51.6 °F 44.4 °F 76% 30.11 in 10.0 mi NNE 11.5 mph 17.3 mph N/A   Overcast
11:35 AM 51.8 °F 44.8 °F 77% 30.11 in 10.0 mi NNE 9.2 mph - N/A   Overcast
11:55 AM 51.3 °F 44.1 °F 76% 30.11 in 10.0 mi NE 11.5 mph - N/A   Overcast
12:15 PM 51.6 °F 44.2 °F 76% 30.11 in 10.0 mi NE 10.4 mph 17.3 mph N/A   Overcast
12:35 PM 51.4 °F 43.9 °F 75% 30.11 in 10.0 mi NE 15.0 mph 18.4 mph N/A   Overcast
12:55 PM 51.4 °F 43.5 °F 74% 30.11 in 10.0 mi NNE 12.7 mph 17.3 mph N/A   Overcast
1:15 PM 51.8 °F 43.7 °F 74% 30.11 in 10.0 mi NE 11.5 mph 18.4 mph N/A   Overcast
1:35 PM 51.4 °F 43.3 °F 74% 30.11 in 10.0 mi NNE 12.7 mph 16.1 mph N/A   Overcast
1:55 PM 51.6 °F 42.8 °F 72% 30.10 in 10.0 mi NNE 13.8 mph 18.4 mph N/A   Overcast
2:15 PM 51.8 °F 43.0 °F 72% 30.11 in 10.0 mi NE 9.2 mph - N/A   Overcast
2:35 PM 52.0 °F 42.8 °F 71% 30.09 in 10.0 mi NE 12.7 mph 20.7 mph N/A   Overcast
2:55 PM 52.2 °F 42.8 °F 70% 30.09 in 10.0 mi NE 9.2 mph 18.4 mph N/A   Overcast
3:15 PM 52.2 °F 42.8 °F 70% 30.10 in 10.0 mi NE 12.7 mph 19.6 mph N/A   Overcast
3:35 PM 52.0 °F 43.5 °F 73% 30.10 in 10.0 mi ENE 8.1 mph 19.6 mph N/A   Overcast
3:55 PM 51.8 °F 43.0 °F 72% 30.10 in 10.0 mi NE 9.2 mph - N/A   Overcast
4:35 PM 51.8 °F 42.6 °F 71% 30.09 in 10.0 mi NE 9.2 mph 19.6 mph N/A   Overcast
4:55 PM 51.4 °F 43.0 °F 73% 30.08 in 10.0 mi NE 11.5 mph 19.6 mph N/A   Overcast
5:15 PM 50.9 °F 44.6 °F 79% 30.07 in 10.0 mi ENE 10.4 mph 17.3 mph N/A   Overcast
5:35 PM 51.3 °F 44.6 °F 78% 30.08 in 10.0 mi ENE 9.2 mph - N/A   Overcast
5:55 PM 51.8 °F 44.4 °F 76% 30.08 in 10.0 mi ENE 9.2 mph 17.3 mph N/A   Overcast
6:15 PM 52.0 °F 44.4 °F 75% 30.10 in 10.0 mi ENE 12.7 mph 18.4 mph N/A   Overcast
6:35 PM 52.2 °F 44.1 °F 74% 30.10 in 10.0 mi ENE 10.4 mph 18.4 mph N/A   Overcast
6:55 PM 51.8 °F 44.8 °F 77% 30.10 in 10.0 mi NE 9.2 mph - N/A   Overcast
7:15 PM 51.6 °F 45.0 °F 78% 30.09 in 10.0 mi ENE 8.1 mph 16.1 mph N/A   Overcast
7:35 PM 52.7 °F 44.8 °F 74% 30.10 in 10.0 mi ENE 9.2 mph 19.6 mph N/A   Overcast
7:55 PM 51.1 °F 46.6 °F 85% 30.09 in 10.0 mi NE 9.2 mph - 0.01 in   Overcast
8:15 PM 50.9 °F 46.8 °F 86% 30.08 in 10.0 mi ENE 9.2 mph 17.3 mph 0.01 in   Overcast
8:35 PM 49.1 °F 46.8 °F 92% 30.09 in 10.0 mi NE 5.8 mph - 0.02 in   Overcast
8:55 PM 49.1 °F 47.3 °F 93% 30.07 in 10.0 mi NNE 9.2 mph - 0.05 in   Overcast
9:15 PM 48.2 °F 46.6 °F 94% 30.09 in 10.0 mi NNE 6.9 mph - 0.01 in   Overcast
9:35 PM 48.2 °F 46.6 °F 94% 30.08 in 10.0 mi NE 5.8 mph - 0.02 in   Overcast
9:55 PM 48.2 °F 46.9 °F 95% 30.08 in 10.0 mi ENE 3.5 mph - 0.03 in   Overcast
10:15 PM 50.5 °F 47.7 °F 90% 30.06 in 10.0 mi East 13.8 mph 18.4 mph N/A   Overcast
10:35 PM 50.9 °F 46.9 °F 86% 30.05 in 10.0 mi East 12.7 mph 18.4 mph 0.01 in   Overcast
10:55 PM 50.7 °F 46.2 °F 85% 30.05 in 10.0 mi East 12.7 mph 20.7 mph 0.01 in   Overcast
11:15 PM 51.1 °F 46.4 °F 84% 30.04 in 10.0 mi East 12.7 mph 18.4 mph N/A   Overcast
11:35 PM 51.4 °F 46.6 °F 83% 30.03 in 10.0 mi East 11.5 mph 20.7 mph N/A   Overcast
11:55 PM 51.4 °F 46.9 °F 85% 30.03 in 10.0 mi East 9.2 mph - N/A   Overcast